[Iaude] MPEC V126: 2023 VS3 [a=1.88,e=0.48,i=24.0,H=20.8,PHA]
    mpec at marsden.cfa.harvard.edu 
    mpec at marsden.cfa.harvard.edu
       
    Wed Nov  8 21:38:01 EST 2023
    
    
  
M.P.E.C. 2023-V126                             Issued 2023 November 9, 02:36 UT
     The Minor Planet Electronic Circulars contain information on unusual
         minor planets, routine data on comets and natural satellites,
         and occasional editorial announcements.  They are published
    on behalf of Division F of the International Astronomical Union by the
          Minor Planet Center, Smithsonian Astrophysical Observatory,
                          Cambridge, MA 02138, U.S.A.
			  
             Prepared using the Tamkin Foundation Computer Network
                              MPC at CFA.HARVARD.EDU
            URL https://www.minorplanetcenter.net/    ISSN 1523-6714
                                    2023 VS3                                    
Observations:
     K23V03S*1C2023 11 07.08082420 41 38.857+00 38 20.04         20.37GVEV126G96
     K23V03S 1C2023 11 07.08650220 41 40.272+00 38 53.84         20.51GVEV126G96
     K23V03S 1C2023 11 07.09217320 41 41.716+00 39 27.76         20.76GVEV126G96
     K23V03S 1C2023 11 07.09786920 41 43.163+00 40 01.42         20.53GVEV126G96
     K23V03S KC2023 11 07.12625920 41 50.340+00 42 51.20         21.10GVEV126I52
     K23V03S KC2023 11 07.12725720 41 50.600+00 42 57.20               VEV126I52
     K23V03S KC2023 11 07.12826520 41 50.830+00 43 03.10               VEV126I52
     K23V03S KC2023 11 07.17358120 42 02.452+00 47 34.48         20.55GVEV126I52
     K23V03S KC2023 11 07.17626220 42 03.103+00 47 50.24         21.44GVEV126I52
     K23V03S KC2023 11 07.17894220 42 03.798+00 48 06.12         21.00GVEV126I52
     K23V03S KC2023 11 08.00892320 45 41.09 +02 09 59.4          20.8 GVEV126H21
     K23V03S |C2023 11 08.01048 20 45 41.09 +02 10 38.5          21.1 VuEV126807
     K23V03S KC2023 11 08.01181320 45 41.81 +02 10 16.4          20.9 GVEV126H21
     K23V03S KC2023 11 08.01470320 45 42.56 +02 10 33.0          21.3 GVEV126H21
     K23V03S |C2023 11 08.01701 20 45 42.72 +02 11 16.5          20.8 VuEV126807
     K23V03S KB2023 11 08.02004 20 45 44.11 +02 11 04.8                XEV126H36
     K23V03S |C2023 11 08.02354 20 45 44.36 +02 11 55.0          21.1 VuEV126807
     K23V03S KB2023 11 08.02864 20 45 46.22 +02 11 55.6          20.5 GXEV126H36
     K23V03S KB2023 11 08.03725 20 45 48.38 +02 12 45.6          21.1 GXEV126H36
     K23V03S KC2023 11 08.08802120 46 01.470+02 17 47.20               VEV126I52
     K23V03S KC2023 11 08.10099420 46 04.740+02 19 02.40         20.74GVEV126I52
     K23V03S KC2023 11 08.11391120 46 07.940+02 20 17.90         20.51GVEV126I52
     K23V03S KC2023 11 09.08322020 50 17.940+03 54 01.00         20.70GVEV126I52
     K23V03S KC2023 11 09.08515720 50 18.360+03 54 12.30               VEV126I52
     K23V03S KC2023 11 09.08709220 50 18.870+03 54 22.70               VEV126I52
Observer details:
807 Cerro Tololo Observatory, La Serena.  Observers T. Linder, R. Holmes, L.
    Horn.  0.61-m f/6.5 Dall-Kirkham Astrograph + CCD.
G96 Mt. Lemmon Survey.  Observer D. Rankin.  Measurers E. C. Beshore, D. Fay,
    J. B. Fazekas, D. C. Fuls, A. R. Gibbs, A. D. Grauer, H. Groeller, J. K.
    Hogan, R. A. Kowalski, S. M. Larson, G. J. Leonard, D. Rankin, R. L.
    Seaman, F. C. Shelly, K. W. Wierzchos.  1.5-m reflector + 10K CCD.
H21 Astronomical Research Observatory, Westfield.  Observer R. Holmes.
    Measurers T. Linder, R. Holmes, L. Horn.  1.3-m f/4.0 astrograph + CCD.
H36 Sandlot Observatory, Scranton.  Observer G. Hug.  0.56-m f/4.8 reflector +
    CMO.
I52 Steward Observatory, Mt. Lemmon Station.  Observer H. Groeller.  Measurers
    E. C. Beshore, D. Fay, J. B. Fazekas, D. C. Fuls, A. R. Gibbs, A. D.
    Grauer, H. Groeller, J. K. Hogan, R. A. Kowalski, S. M. Larson, G. J.
    Leonard, D. Rankin, R. L. Seaman, F. C. Shelly, K. W. Wierzchos.  1.0-m
    prime focus + CCD.
Orbital elements:
2023 VS3                                            PHA, Earth MOID = 0.0013 AU
Epoch 2023 Sept. 13.0 TT = JDT 2460200.5                MPC                     
M 350.09622              (2000.0)            P               Q                  
n   0.38386925     Peri.  339.60206     +0.98509511     +0.14500261             
a   1.8750542      Node    13.12847     -0.03260223     +0.68557861             
e   0.4768372      Incl.   24.04035     -0.16889262     +0.71341167             
P   2.57           H   20.82          G   0.15           U   9                  
Residuals in seconds of arc
231107 G96  0.4+  0.3+    231107 I52  0.0   0.0     231108 H36  0.3-  0.4-
231107 G96  0.1+  0.1+    231108 H21  0.3-  0.0     231108 I52  0.1+  0.9+
231107 G96  0.1+  0.1+    231108 807  0.7+  0.3+    231108 I52  0.5+  0.0
231107 G96  0.2+  0.3-    231108 H21  0.4-  0.0     231108 I52  0.1-  0.1-
231107 I52  0.3-  0.2-    231108 H21  0.1-  0.4-    231109 I52  0.8+  0.4-
231107 I52  0.2-  0.2-    231108 807  0.5+  0.1-    231109 I52  0.1-  0.2-
231107 I52  0.6-  0.3-    231108 H36  0.4+  0.2-    231109 I52  0.4+  0.9-
231107 I52  0.4+  0.4+    231108 807  0.5+  0.1+
231107 I52  0.1-  0.2+    231108 H36  0.3-  0.1+
Ephemeris:
2023 VS3                 a,e,i = 1.88, 0.48, 24                  q = 0.9810
Date    TT    R. A. (2000) Decl.     Delta      r    Elong.  Phase     V
2023 10 10    18 08 37.8 -43 46 33   0.3726  0.9811    76.5    81.9    21.5
...
2023 10 25    19 38 34.0 -22 22 55   0.3204  0.9999    81.7    79.8    21.1
...
2023 11 02    20 18 38.1 -08 08 06   0.3216  1.0224    86.1    75.6    21.0
...
2023 11 08    20 45 38.8 +02 09 18   0.3373  1.0443    89.5    71.6    21.1
2023 11 09    20 49 56.7 +03 46 11   0.3410  1.0483    90.1    70.9    21.1
2023 11 10    20 54 11.6 +05 20 56   0.3451  1.0524    90.6    70.2    21.1
...
2023 11 16    21 18 45.9 +14 00 29   0.3749  1.0792    93.5    66.2    21.2
...
2023 11 24    21 49 44.6 +23 19 04   0.4268  1.1198    96.6    61.2    21.4
...
2023 12 09    22 45 16.8 +35 05 09   0.5482  1.2070    99.9    53.5    21.9
A. U. Tomatic                (C) Copyright 2023 MPC           M.P.E.C. 2023-V126
    
    
More information about the Iaude
mailing list